HST 1 20580U 90037B 25129.69964448 .00006667 00000-0 25207-3 0 9997 2 20580 28.4677 305.7208 0002729 30.1886 329.8866 15.24901556726805 ISS (ZARYA) 1 25544U 98067A 25129.52987991 .00008832 00000-0 16579-3 0 9991 2 25544 51.6373 138.5518 0002579 96.2220 12.6743 15.49431663509168 CXO 1 25867U 99040B 25132.41211790 .00000614 00000-0 00000-0 0 9999 2 25867 48.7216 131.4145 8476609 308.9568 359.8615 0.37808717 15808